Accueil
METAR-TAF:

METAR-TAF

Aéroports :

Aéroport de Kameshli

Al Qamishli, Syrie

latitude: 37-03N, longitude: 041-13E, altitude: 455 m

Observation

Le bulletin a été fait il y a 1 heure et 9 minutes, à 18:00 UTC
Vent 10 kt de est/nord-est
Température 11°C
Humidité 87%
Pression 1008 hPa
Visibilité 10 km ou plus
Nuages épars à une hauteur de 2600 ft
Nuages fragmentés à une hauteur de 10000 ft

METAR: OSKL 291800Z 07010KT 9999 SCT026 BKN100 11/09 Q1008

Heure: 22:09 (19:09 UTC)


TAF: absent

Observations et prévisions météorologiques de plus de 4000 aéroports (messages METAR et TAF).

Les stations disponibles sont représentées par des disques jaunes et rouges sur la carte.

Passer la souris dessus pour voir le nom de la station.

Cliquer dessus pour voir les observations et prévisions météorologiques.

Pour changer de carte: cliquez sur les boutons verts avec une croix noire pour zoomer, sur le bouton vert avec un tiret pour effectuer un zoom arrière, ou sur les flèches vertes pour les cartes adjacentes.


METAR-TAF: